Location: Milevsko
(49.4500°N, 14.3670°E)
Time: 20:40:18
(UTC+02:00)

ISS - Pass Details

Date: 20 July 2018
Orbit: 402 x 408 km, 51.6° (Epoch: 17 July)

Event Time Altitude Azimuth Distance (km) Brightness Sun altitude
Rises 02:14:12 0° 283° (WNW) 2,328 0.0 -18.4°
Reaches altitude 10° 02:16:18 10° 287° (WNW) 1,468 -1.0 -18.3°
Maximum altitude 02:19:34 64° 10° (N) 456 -3.4 -18.1°
Drops below altitude 10° 02:22:51 10° 92° (E) 1,468 -0.8 -17.9°
Sets 02:24:57 0° 96° (E) 2,328 0.2 -17.8°
